Regional Weather Roundup
Issued by NWS

Home | Current Version | Previous Version | Graphics & Text | Print | Product List | Glossary Off
Versions: 1 2 3 4 5 6 7 8 9 10 11 12 13 14 15 16 17 18 19 20 21 22 23 24 25 26 27 28 29 30 31 32 33 34 35 36 37 38 39 40 41 42 43 44 45 46 47 48 49 50

525
ASUS45 KSLC 011210
RWRUT

UTAH REGIONAL WEATHER ROUNDUP
NATIONAL WEATHER SERVICE SALT LAKE CITY UT
600 AM MDT SAT OCT 01 2016

UTZ001>011-023>025-011300-

NORTHERN UTAH

CITY           SKY/WX    TMP DP  RH WIND       PRES   REMARKS
BRIGHAM CITY     N/A     53  48  83 CALM      30.05F
HILL AFB       PTCLDY    59  44  57 SE15      30.06F
LOGAN          PTCLDY    48  46  93 E6        30.07S
OGDEN          CLEAR     58  45  62 S10       30.04F
PROVO AIRPORT  PTCLDY    55  47  74 CALM      30.11S
SALT LAKE CITY PTCLDY    61  49  64 SE8       30.05S
VERNAL         CLEAR     47  44  90 W3        30.19S
WENDOVER       PTCLDY    57  45  62 NE7       30.02S
HEBER CITY     CLEAR     41  37  87 CALM      30.16S
WEST JORDAN    CLEAR     60  49  66 S20G25    30.08S

$$

UTZ012>022-026-027-011300-

SOUTHERN/CENTRAL UTAH

CITY           SKY/WX    TMP DP  RH WIND       PRES   REMARKS
BLANDING       CLEAR     48  44  86 CALM      30.31R
BRYCE CANYON   PTCLDY    39  37  92 W5        30.31S
CEDAR CITY     PTCLDY    54  44  69 MISG      30.17R
DELTA          PTCLDY    55  43  62 S9        30.11S
MILFORD        CLEAR     55  44  66 SW12      30.12F
MOAB/CYNLANDS  CLEAR     55  51  86 SE3       30.14S
PRICE          CLOUDY    54  49  83 CALM      30.20F
ST GEORGE      PTSUNNY   66  50  55 SE8       30.07S

$$

REGIONAL REPORTS     COLORADO/ARIZONA

CITY           SKY/WX    TMP DP  RH WIND       PRES   REMARKS
CRAIG, CO      CLEAR     37  34  89 W3        30.25S
GRAND JUNCTION CLEAR     50  46  86 SE5       30.19R
RIFLE          CLEAR     44  43  96 CALM      30.25R
MONTROSE       CLEAR     45  40  82 SE6       30.26S
CORTEZ         CLEAR     41  38  89 E5        30.25S
PAGE, AZ       CLEAR     60  52  74 CALM      30.14S
GRAND CANYON   PTCLDY    42  39  89 CALM      30.28S
KINGMAN        CLEAR     63  50  63 SE10      30.07F
FLAGSTAFF      PTCLDY    41  40  96 CALM      30.30S

$$

REGIONAL REPORTS    NEVADA/IDAHO/WYOMING

CITY           SKY/WX    TMP DP  RH WIND       PRES   REMARKS
LAS VEGAS, NV  PTCLDY    76  41  28 S7        29.96S
ELY            PTCLDY    53  40  61 S10       30.16S
ELKO           MOCLDY    48  42  80 CALM      30.04S
POCATELLO, ID  CLEAR     48  45  89 N5        30.00F
BURLEY         PTCLDY    54  49  83 CALM      29.97R
EVANSTON, WY   CLEAR     46  37  71 SE7       30.21F
ROCK SPRINGS   CLEAR     47  40  76 SE9       30.21F

$$




USA.gov is the U.S. government's official web portal to all federal, state and local government web resources and services.